Time,TemperatureF,DewpointF,PressureIn,WindDirection,WindDirectionDegrees,WindSpeedMPH,WindSpeedGustMPH,Humidity,HourlyPrecipIn,Conditions,Clouds,dailyrainin,SoftwareType,DateUTC
2013-02-13 00:02:00,38.0,31.0,30.00,North,360,0.0,0.0,76,0.00,,,0.00,,2013-02-13 06:02:00,
2013-02-13 00:11:00,38.0,31.0,30.00,North,360,0.0,0.0,76,0.00,,,0.00,,2013-02-13 06:11:00,
2013-02-13 00:21:00,38.0,31.0,30.00,North,360,0.0,0.0,76,0.00,,,0.00,,2013-02-13 06:21:00,
2013-02-13 00:32:00,37.0,30.0,29.99,North,360,0.0,0.0,76,0.00,,,0.00,,2013-02-13 06:32:00,
2013-02-13 00:42:00,38.0,31.0,29.98,South,184,0.0,0.0,76,0.00,,,0.00,,2013-02-13 06:42:00,
2013-02-13 00:52:00,38.0,31.0,29.98,South,184,0.0,0.0,76,0.00,,,0.00,,2013-02-13 06:52:00,
2013-02-13 01:02:00,38.0,31.0,29.97,South,182,0.0,0.0,75,0.00,,,0.00,,2013-02-13 07:02:00,
2013-02-13 01:11:00,38.0,31.0,29.97,South,181,0.0,0.0,75,0.00,,,0.00,,2013-02-13 07:11:00,
2013-02-13 01:22:00,38.0,31.0,29.97,South,181,0.0,0.0,75,0.00,,,0.00,,2013-02-13 07:22:00,
2013-02-13 01:31:00,38.0,31.0,29.97,South,181,0.0,0.0,76,0.00,,,0.00,,2013-02-13 07:31:00,
2013-02-13 01:41:00,38.0,31.0,29.97,South,181,0.0,0.0,76,0.00,,,0.00,,2013-02-13 07:41:00,
2013-02-13 01:52:00,37.0,30.0,29.97,SSW,207,0.0,0.0,77,0.00,,,0.00,,2013-02-13 07:52:00,
2013-02-13 02:01:00,37.0,30.0,29.97,WSW,250,0.0,0.0,77,0.00,,,0.00,,2013-02-13 08:01:00,
2013-02-13 02:11:00,37.0,30.0,29.97,WSW,250,0.0,0.0,77,0.00,,,0.00,,2013-02-13 08:11:00,
2013-02-13 02:21:00,37.0,30.0,29.97,WSW,250,0.0,0.0,77,0.00,,,0.00,,2013-02-13 08:21:00,
2013-02-13 02:32:00,38.0,31.0,29.97,WSW,252,0.0,0.0,77,0.00,,,0.00,,2013-02-13 08:32:00,
2013-02-13 02:43:00,38.0,31.0,29.97,WSW,252,0.0,0.0,77,0.00,,,0.00,,2013-02-13 08:43:00,
2013-02-13 02:52:00,38.0,31.0,29.96,WSW,250,0.0,0.0,76,0.00,,,0.00,,2013-02-13 08:52:00,
2013-02-13 03:01:00,38.0,31.0,29.96,WSW,242,0.0,0.0,75,0.00,,,0.00,,2013-02-13 09:01:00,
2013-02-13 03:11:00,38.0,31.0,29.96,WSW,242,0.0,0.0,75,0.00,,,0.00,,2013-02-13 09:11:00,
2013-02-13 03:21:00,37.0,30.0,29.95,WSW,246,0.0,0.0,75,0.00,,,0.00,,2013-02-13 09:21:00,
2013-02-13 03:31:00,37.0,29.0,29.94,WSW,249,0.0,0.0,74,0.00,,,0.00,,2013-02-13 09:31:00,
2013-02-13 03:41:00,37.0,29.0,29.94,WSW,250,0.0,0.0,74,0.00,,,0.00,,2013-02-13 09:41:00,
2013-02-13 03:52:00,37.0,29.0,29.94,WSW,250,0.0,0.0,74,0.00,,,0.00,,2013-02-13 09:52:00,
2013-02-13 04:01:00,38.0,30.0,29.93,SW,236,0.0,0.0,73,0.00,,,0.00,,2013-02-13 10:01:00,
2013-02-13 04:11:00,38.0,30.0,29.93,SSW,192,0.0,0.0,73,0.00,,,0.00,,2013-02-13 10:11:00,
2013-02-13 04:21:00,38.0,30.0,29.93,SSW,192,0.0,0.0,73,0.00,,,0.00,,2013-02-13 10:21:00,
2013-02-13 04:32:00,38.0,30.0,29.92,North,360,0.0,0.0,72,0.00,,,0.00,,2013-02-13 10:32:00,
2013-02-13 04:42:00,38.0,30.0,29.92,North,360,0.0,0.0,72,0.00,,,0.00,,2013-02-13 10:42:00,
2013-02-13 04:52:00,38.0,30.0,29.92,North,360,0.0,0.0,72,0.00,,,0.00,,2013-02-13 10:52:00,
2013-02-13 05:01:00,38.0,30.0,29.91,North,360,0.0,0.0,72,0.00,,,0.00,,2013-02-13 11:01:00,
2013-02-13 05:11:00,38.0,30.0,29.91,North,360,0.0,0.0,72,0.00,,,0.00,,2013-02-13 11:11:00,
2013-02-13 05:22:00,37.0,29.0,29.92,North,360,0.0,0.0,73,0.00,,,0.00,,2013-02-13 11:22:00,
2013-02-13 05:32:00,37.0,29.0,29.91,SE,144,0.0,0.0,73,0.00,,,0.00,,2013-02-13 11:32:00,
2013-02-13 05:42:00,37.0,29.0,29.91,North,360,0.0,0.0,73,0.00,,,0.00,,2013-02-13 11:42:00,
2013-02-13 05:52:00,37.0,29.0,29.91,North,360,0.0,0.0,73,0.00,,,0.00,,2013-02-13 11:52:00,
2013-02-13 06:02:00,37.0,29.0,29.91,North,360,0.0,0.0,73,0.00,,,0.00,,2013-02-13 12:02:00,
2013-02-13 06:11:00,37.0,29.0,29.92,North,360,0.0,0.0,73,0.00,,,0.00,,2013-02-13 12:11:00,
2013-02-13 06:22:00,37.0,29.0,29.92,North,360,0.0,0.0,73,0.00,,,0.00,,2013-02-13 12:22:00,
2013-02-13 06:32:00,37.0,29.0,29.92,ESE,109,0.0,0.0,73,0.00,,,0.00,,2013-02-13 12:32:00,
2013-02-13 06:42:00,37.0,29.0,29.92,North,360,0.0,0.0,74,0.00,,,0.00,,2013-02-13 12:42:00,
2013-02-13 06:52:00,37.0,29.0,29.92,North,360,0.0,0.0,74,0.00,,,0.00,,2013-02-13 12:52:00,
2013-02-13 07:02:00,36.0,29.0,29.92,SSW,200,0.0,0.0,74,0.00,,,0.00,,2013-02-13 13:02:00,
2013-02-13 07:11:00,36.0,29.0,29.92,SSW,200,0.0,0.0,74,0.00,,,0.00,,2013-02-13 13:11:00,
2013-02-13 07:21:00,36.0,29.0,29.93,South,191,0.0,0.0,75,0.00,,,0.00,,2013-02-13 13:21:00,
2013-02-13 07:32:00,36.0,29.0,29.93,South,171,0.0,0.0,76,0.00,,,0.00,,2013-02-13 13:32:00,
2013-02-13 07:41:00,36.0,29.0,29.94,North,360,0.0,0.0,77,0.00,,,0.00,,2013-02-13 13:41:00,
2013-02-13 07:52:00,36.0,29.0,29.94,North,360,0.0,0.0,77,0.00,,,0.00,,2013-02-13 13:52:00,
2013-02-13 08:01:00,36.0,29.0,29.94,ENE,71,0.0,0.0,77,0.00,,,0.00,,2013-02-13 14:01:00,
2013-02-13 08:11:00,36.0,29.0,29.94,ENE,71,0.0,0.0,77,0.00,,,0.00,,2013-02-13 14:11:00,
2013-02-13 08:21:00,36.0,29.0,29.94,WSW,238,0.0,0.0,77,0.00,,,0.00,,2013-02-13 14:21:00,
2013-02-13 08:31:00,37.0,30.0,29.94,SSW,207,0.0,0.0,77,0.00,,,0.00,,2013-02-13 14:31:00,
2013-02-13 08:42:00,38.0,31.0,29.93,SSW,205,0.0,0.0,75,0.00,,,0.00,,2013-02-13 14:42:00,
2013-02-13 08:52:00,38.0,31.0,29.93,SSW,205,0.0,0.0,75,0.00,,,0.00,,2013-02-13 14:52:00,
2013-02-13 09:01:00,40.0,31.0,29.93,SW,220,0.0,0.0,71,0.00,,,0.00,,2013-02-13 15:01:00,
2013-02-13 09:11:00,42.0,32.0,29.93,SW,215,0.0,0.0,67,0.00,,,0.00,,2013-02-13 15:11:00,
2013-02-13 09:21:00,42.0,32.0,29.93,SW,215,0.0,0.0,67,0.00,,,0.00,,2013-02-13 15:21:00,
2013-02-13 09:32:00,43.0,31.0,29.93,SSW,211,0.0,0.0,63,0.00,,,0.00,,2013-02-13 15:32:00,
2013-02-13 09:42:00,43.0,31.0,29.93,SSW,211,0.0,0.0,63,0.00,,,0.00,,2013-02-13 15:42:00,
2013-02-13 09:52:00,44.0,31.0,29.93,SW,217,0.0,0.0,60,0.00,,,0.00,,2013-02-13 15:52:00,
2013-02-13 10:01:00,45.0,31.0,29.93,SW,233,0.0,0.0,57,0.00,,,0.00,,2013-02-13 16:01:00,
2013-02-13 10:11:00,47.0,32.0,29.92,WSW,239,0.0,0.0,55,0.00,,,0.00,,2013-02-13 16:11:00,
2013-02-13 10:21:00,47.0,32.0,29.92,WSW,239,0.0,0.0,55,0.00,,,0.00,,2013-02-13 16:21:00,
2013-02-13 10:31:00,48.0,31.0,29.92,SSW,200,0.0,0.0,52,0.00,,,0.00,,2013-02-13 16:31:00,
2013-02-13 10:42:00,48.0,31.0,29.92,SSW,200,0.0,0.0,52,0.00,,,0.00,,2013-02-13 16:42:00,
2013-02-13 10:52:00,49.0,31.0,29.91,South,188,0.0,0.0,49,0.00,,,0.00,,2013-02-13 16:52:00,
2013-02-13 11:01:00,49.0,29.0,29.91,SW,224,0.0,0.0,46,0.00,,,0.00,,2013-02-13 17:01:00,
2013-02-13 11:11:00,49.0,29.0,29.91,SW,224,0.0,0.0,46,0.00,,,0.00,,2013-02-13 17:11:00,
2013-02-13 11:21:00,51.0,31.0,29.91,SSW,206,0.0,0.0,47,0.00,,,0.00,,2013-02-13 17:21:00,
2013-02-13 11:31:00,51.0,31.0,29.91,SSW,208,0.0,0.0,46,0.00,,,0.00,,2013-02-13 17:31:00,
2013-02-13 11:41:00,51.0,31.0,29.91,SSW,208,0.0,0.0,46,0.00,,,0.00,,2013-02-13 17:41:00,
2013-02-13 11:52:00,52.0,32.0,29.91,SSW,205,0.0,0.0,46,0.00,,,0.00,,2013-02-13 17:52:00,
2013-02-13 12:01:00,52.0,32.0,29.90,South,191,0.0,0.0,46,0.00,,,0.00,,2013-02-13 18:01:00,
2013-02-13 12:11:00,52.0,32.0,29.90,South,191,0.0,0.0,46,0.00,,,0.00,,2013-02-13 18:11:00,
2013-02-13 12:22:00,52.0,31.0,29.90,WSW,242,0.0,0.0,44,0.00,,,0.00,,2013-02-13 18:22:00,
2013-02-13 12:32:00,53.0,32.0,29.88,SW,231,0.0,0.0,45,0.00,,,0.00,,2013-02-13 18:32:00,
2013-02-13 12:41:00,53.0,32.0,29.88,SW,231,0.0,0.0,45,0.00,,,0.00,,2013-02-13 18:41:00,
2013-02-13 12:52:00,53.0,32.0,29.88,SSW,210,0.0,0.0,44,0.00,,,0.00,,2013-02-13 18:52:00,
2013-02-13 13:01:00,53.0,32.0,29.87,WSW,240,0.0,0.0,44,0.00,,,0.00,,2013-02-13 19:01:00,
2013-02-13 13:11:00,53.0,31.0,29.87,SSW,212,0.0,0.0,43,0.00,,,0.00,,2013-02-13 19:11:00,
2013-02-13 13:21:00,53.0,31.0,29.87,SSW,212,0.0,0.0,43,0.00,,,0.00,,2013-02-13 19:21:00,
2013-02-13 13:31:00,54.0,30.0,29.87,WSW,243,0.0,0.0,40,0.00,,,0.00,,2013-02-13 19:31:00,
2013-02-13 13:41:00,54.0,30.0,29.87,WSW,243,0.0,0.0,40,0.00,,,0.00,,2013-02-13 19:41:00,
2013-02-13 13:52:00,54.0,31.0,29.86,SW,215,0.0,0.0,41,0.00,,,0.00,,2013-02-13 19:52:00,
2013-02-13 14:02:00,53.0,30.0,29.85,South,171,0.0,0.0,41,0.00,,,0.00,,2013-02-13 20:02:00,
2013-02-13 14:11:00,53.0,30.0,29.85,South,171,0.0,0.0,41,0.00,,,0.00,,2013-02-13 20:11:00,
2013-02-13 14:21:00,53.0,30.0,29.85,South,171,0.0,0.0,41,0.00,,,0.00,,2013-02-13 20:21:00,
2013-02-13 14:31:00,54.0,30.0,29.85,WSW,254,0.0,0.0,40,0.00,,,0.00,,2013-02-13 20:31:00,
2013-02-13 14:42:00,54.0,30.0,29.84,SW,232,0.0,0.0,40,0.00,,,0.00,,2013-02-13 20:42:00,
2013-02-13 14:52:00,54.0,30.0,29.84,SW,232,0.0,0.0,40,0.00,,,0.00,,2013-02-13 20:52:00,
2013-02-13 15:01:00,53.0,30.0,29.84,SW,218,0.0,0.0,41,0.00,,,0.00,,2013-02-13 21:01:00,
2013-02-13 15:11:00,53.0,30.0,29.84,SW,218,0.0,0.0,41,0.00,,,0.00,,2013-02-13 21:11:00,
2013-02-13 15:21:00,54.0,31.0,29.85,WSW,254,0.0,0.0,41,0.00,,,0.00,,2013-02-13 21:21:00,
2013-02-13 15:31:00,54.0,30.0,29.85,SW,232,0.0,0.0,40,0.00,,,0.00,,2013-02-13 21:31:00,
2013-02-13 15:42:00,53.0,31.0,29.85,WSW,248,0.0,0.0,42,0.00,,,0.00,,2013-02-13 21:42:00,
2013-02-13 15:52:00,53.0,31.0,29.85,WSW,248,0.0,0.0,42,0.00,,,0.00,,2013-02-13 21:52:00,
2013-02-13 16:02:00,53.0,31.0,29.85,SW,215,0.0,0.0,42,0.00,,,0.00,,2013-02-13 22:02:00,
2013-02-13 16:11:00,53.0,31.0,29.85,SW,215,0.0,0.0,42,0.00,,,0.00,,2013-02-13 22:11:00,
2013-02-13 16:21:00,53.0,31.0,29.85,SSW,207,0.0,0.0,42,0.00,,,0.00,,2013-02-13 22:21:00,
2013-02-13 16:31:00,52.0,30.0,29.86,NNE,25,0.0,0.0,42,0.00,,,0.00,,2013-02-13 22:31:00,
2013-02-13 16:42:00,52.0,30.0,29.86,NNE,25,0.0,0.0,42,0.00,,,0.00,,2013-02-13 22:42:00,
2013-02-13 16:52:00,52.0,30.0,29.86,NNE,30,0.0,0.0,43,0.00,,,0.00,,2013-02-13 22:52:00,
2013-02-13 17:01:00,51.0,30.0,29.86,NNE,33,0.0,0.0,45,0.00,,,0.00,,2013-02-13 23:01:00,
2013-02-13 17:11:00,51.0,30.0,29.86,NNE,33,0.0,0.0,45,0.00,,,0.00,,2013-02-13 23:11:00,
2013-02-13 17:21:00,51.0,31.0,29.86,ENE,57,0.0,0.0,46,0.00,,,0.00,,2013-02-13 23:21:00,
2013-02-13 17:32:00,50.0,31.0,29.86,NE,56,0.0,0.0,48,0.00,,,0.00,,2013-02-13 23:32:00,
2013-02-13 17:42:00,50.0,31.0,29.86,NE,56,0.0,0.0,48,0.00,,,0.00,,2013-02-13 23:42:00,
2013-02-13 17:52:00,50.0,32.0,29.87,ENE,67,0.0,0.0,49,0.00,,,0.00,,2013-02-13 23:52:00,
2013-02-13 18:02:00,49.0,31.0,29.88,ENE,60,0.0,0.0,50,0.00,,,0.00,,2013-02-14 00:02:00,
2013-02-13 18:11:00,49.0,31.0,29.88,ENE,60,0.0,0.0,50,0.00,,,0.00,,2013-02-14 00:11:00,
2013-02-13 18:21:00,48.0,31.0,29.88,ENE,60,0.0,0.0,52,0.00,,,0.00,,2013-02-14 00:21:00,
2013-02-13 18:32:00,47.0,31.0,29.88,SW,215,0.0,0.0,53,0.00,,,0.00,,2013-02-14 00:32:00,
2013-02-13 18:42:00,47.0,31.0,29.88,SW,215,0.0,0.0,53,0.00,,,0.00,,2013-02-14 00:42:00,
2013-02-13 18:52:00,46.0,31.0,29.88,South,191,0.0,0.0,55,0.00,,,0.00,,2013-02-14 00:52:00,
2013-02-13 19:01:00,45.0,31.0,29.88,ESE,111,0.0,0.0,57,0.00,,,0.00,,2013-02-14 01:01:00,
2013-02-13 19:11:00,45.0,31.0,29.88,ESE,111,0.0,0.0,57,0.00,,,0.00,,2013-02-14 01:11:00,
2013-02-13 19:21:00,46.0,32.0,29.89,East,95,0.0,0.0,57,0.00,,,0.00,,2013-02-14 01:21:00,
2013-02-13 19:31:00,46.0,32.0,29.89,East,82,0.0,0.0,57,0.00,,,0.00,,2013-02-14 01:31:00,
2013-02-13 19:41:00,46.0,32.0,29.89,East,82,0.0,0.0,57,0.00,,,0.00,,2013-02-14 01:41:00,
2013-02-13 19:52:00,45.0,31.0,29.89,ESE,109,0.0,0.0,58,0.00,,,0.00,,2013-02-14 01:52:00,
2013-02-13 20:01:00,45.0,32.0,29.90,ESE,102,0.0,0.0,59,0.00,,,0.00,,2013-02-14 02:01:00,
2013-02-13 20:11:00,43.0,30.0,29.90,North,360,0.0,0.0,59,0.00,,,0.00,,2013-02-14 02:11:00,
2013-02-13 20:21:00,43.0,30.0,29.90,North,360,0.0,0.0,59,0.00,,,0.00,,2013-02-14 02:21:00,
2013-02-13 20:31:00,43.0,32.0,29.90,East,80,0.0,0.0,64,0.00,,,0.00,,2013-02-14 02:31:00,
2013-02-13 20:41:00,43.0,32.0,29.90,East,80,0.0,0.0,64,0.00,,,0.00,,2013-02-14 02:41:00,
2013-02-13 20:52:00,43.0,32.0,29.90,East,80,0.0,0.0,64,0.00,,,0.00,,2013-02-14 02:52:00,
2013-02-13 21:02:00,44.0,33.0,29.91,ENE,78,0.0,0.0,64,0.00,,,0.00,,2013-02-14 03:02:00,
2013-02-13 21:11:00,43.0,32.0,29.91,East,84,0.0,0.0,66,0.00,,,0.00,,2013-02-14 03:11:00,
2013-02-13 21:21:00,43.0,32.0,29.91,East,84,0.0,0.0,66,0.00,,,0.00,,2013-02-14 03:21:00,
2013-02-13 21:31:00,43.0,33.0,29.91,ESE,117,0.0,0.0,67,0.00,,,0.00,,2013-02-14 03:31:00,
2013-02-13 21:42:00,43.0,33.0,29.91,ESE,117,0.0,0.0,67,0.00,,,0.00,,2013-02-14 03:42:00,
2013-02-13 21:52:00,43.0,33.0,29.91,ESE,117,0.0,0.0,68,0.00,,,0.00,,2013-02-14 03:52:00,
2013-02-13 22:01:00,42.0,33.0,29.91,ESE,121,0.0,0.0,70,0.00,,,0.00,,2013-02-14 04:01:00,
2013-02-13 22:11:00,42.0,33.0,29.91,SE,126,0.0,0.0,70,0.00,,,0.00,,2013-02-14 04:11:00,
2013-02-13 22:21:00,42.0,33.0,29.91,SE,126,0.0,0.0,70,0.00,,,0.00,,2013-02-14 04:21:00,
2013-02-13 22:31:00,42.0,33.0,29.91,ESE,105,0.0,0.0,71,0.00,,,0.00,,2013-02-14 04:31:00,
2013-02-13 22:41:00,42.0,33.0,29.91,ESE,105,0.0,0.0,71,0.00,,,0.00,,2013-02-14 04:41:00,
2013-02-13 22:52:00,41.0,33.0,29.91,ESE,115,0.0,0.0,72,0.00,,,0.00,,2013-02-14 04:52:00,
2013-02-13 23:01:00,41.0,33.0,29.90,ESE,114,0.0,0.0,73,0.00,,,0.00,,2013-02-14 05:01:00,
2013-02-13 23:11:00,41.0,33.0,29.90,ESE,114,0.0,0.0,73,0.00,,,0.00,,2013-02-14 05:11:00,
2013-02-13 23:21:00,41.0,33.0,29.90,ESE,114,0.0,0.0,73,0.00,,,0.00,,2013-02-14 05:21:00,
2013-02-13 23:31:00,41.0,33.0,29.90,ESE,113,0.0,0.0,73,0.00,,,0.00,,2013-02-14 05:31:00,
2013-02-13 23:41:00,41.0,33.0,29.90,ESE,113,0.0,0.0,73,0.00,,,0.00,,2013-02-14 05:41:00,
2013-02-13 23:52:00,40.0,32.0,29.90,East,99,0.0,0.0,74,0.00,,,0.00,,2013-02-14 05:52:00,